Baker, MT

10:40 AM MDT on April 29, 2017 (GMT -0600)
Baker Municipal

Weather History for KBHK - April, 2013

Change the Weather History Date:

Thursday, April 25, 2013

  Actual Average Record
Temperature  
Mean Temperature 45 °F -  
Max Temperature 64 °F 49 °F 80 °F (2012)
Min Temperature 28 °F 25 °F 18 °F (2002)
Degree Days  
Heating Degree Days 20    
Moisture  
Dew Point 24 °F    
Average Humidity 45    
Maximum Humidity 79    
Minimum Humidity 20    
Precipitation  
Precipitation 0.00 in - - ()
Sea Level Pressure  
Sea Level Pressure 29.89 in    
Wind  
Wind Speed 12 mph (SW)    
Max Wind Speed 20 mph    
Max Gust Speed 32 mph    
Visibility 10 miles    
Events      
Averages and records for this station are not official NWS values.
T = Trace of Precipitation, MM = Missing Value Source: NWS Daily Summary

Daily Weather History Graph

Daily Weather History Graph

Search for Another Location

Airport or City:

Trip Planner

Search our weather history database for the weather conditions in past years. The results will help you decide how hot, cold, wet, or windy it might be!

Date:

Astronomy

Apr. 25, 2013 Rise Set
Actual Time 5:52 AM MDT 7:58 PM MDT
Civil Twilight 5:19 AM MDT 8:31 PM MDT
Nautical Twilight 4:39 AM MDT 9:11 PM MDT
Astronomical Twilight 3:54 AM MDT 9:56 PM MDT
Moon 8:16 PM MDT (4/25) 5:37 AM MDT (4/25)
Length of Visible Light 15h 11m
Length of Day
14h 06m
Full, 100% of the Moon is Illuminated
Apr 25
Full
Apr 25
Full
May 2
Last Quarter
May 9
New
May 17
First Quarter

Hourly Weather History & Observations

Time (MDT) Temp. Windchill Dew Point Humidity Pressure Visibility Wind Dir Wind Speed Gust Speed Precip Events Conditions
12:51 AM 37.0 °F 28.9 °F 21.0 °F 52% 30.02 in 10.0 mi SSE 12.7 mph - N/A   Overcast
1:51 AM 34.0 °F 24.6 °F 21.9 °F 61% 29.99 in 10.0 mi South 13.8 mph - N/A   Scattered Clouds
2:51 AM 34.0 °F 24.2 °F 23.0 °F 64% 29.96 in 10.0 mi South 15.0 mph - N/A   Clear
3:51 AM 32.0 °F 22.1 °F 23.0 °F 69% 29.93 in 10.0 mi SSE 13.8 mph - N/A   Mostly Cloudy
4:51 AM 30.0 °F 20.5 °F 23.0 °F 75% 29.92 in 10.0 mi SE 11.5 mph - N/A   Clear
5:51 AM 28.9 °F 21.9 °F 23.0 °F 78% 29.91 in 10.0 mi ESE 6.9 mph - N/A   Clear
6:51 AM 30.9 °F 26.2 °F 25.0 °F 79% 29.91 in 10.0 mi ESE 4.6 mph - N/A   Clear
7:51 AM 41.0 °F 37.1 °F 27.0 °F 57% 29.89 in 10.0 mi ESE 5.8 mph - N/A   Clear
8:51 AM 48.9 °F - 26.1 °F 41% 29.88 in 10.0 mi SW 10.4 mph - N/A   Clear
9:51 AM 52.0 °F - 26.1 °F 37% 29.86 in 10.0 mi WSW 12.7 mph - N/A   Partly Cloudy
10:51 AM 55.9 °F - 25.0 °F 30% 29.85 in 10.0 mi West 15.0 mph - N/A   Clear
11:51 AM 60.1 °F - 25.0 °F 26% 29.82 in 10.0 mi West 12.7 mph - N/A   Partly Cloudy
12:51 PM 61.0 °F - 21.9 °F 22% 29.80 in 10.0 mi West 19.6 mph 32.2 mph N/A   Clear
2:51 PM 62.1 °F - 19.9 °F 20% 29.80 in 10.0 mi WNW 18.4 mph 31.1 mph N/A   Scattered Clouds
3:51 PM 62.1 °F - 21.0 °F 21% 29.81 in 10.0 mi West 19.6 mph 27.6 mph N/A   Mostly Cloudy
4:51 PM 62.1 °F - 21.0 °F 21% 29.81 in 10.0 mi WNW 17.3 mph 20.7 mph N/A   Mostly Cloudy
5:51 PM 62.1 °F - 21.9 °F 21% 29.83 in 10.0 mi WNW 19.6 mph 26.5 mph N/A   Mostly Cloudy
6:51 PM 61.0 °F - 21.0 °F 21% 29.84 in 10.0 mi WNW 15.0 mph 21.9 mph N/A   Clear
7:51 PM 51.1 °F - 26.1 °F 38% 29.87 in 10.0 mi West 6.9 mph - N/A   Clear
8:51 PM 48.9 °F - 28.9 °F 46% 29.89 in 10.0 mi Calm Calm - N/A   Clear
9:51 PM 43.0 °F - 24.1 °F 47% 29.92 in 10.0 mi Calm Calm - N/A   Clear
10:51 PM 39.9 °F - 25.0 °F 55% 29.94 in 10.0 mi Calm Calm - N/A   Clear
11:51 PM 37.0 °F - 25.0 °F 62% 29.94 in 10.0 mi Calm Calm - N/A   Clear